"read_dt","SO2 (ppb)","flags","PMT voltage (V)","lamp voltage (V)","lamp intensity (Hz)","internal temp (C)","react chamber temp (C)","sample flow (l/min)","pres (mmHg)","SO2 bkg (ppb)","SO2 coefficient"
2016-01-21 00:00:00,1688E-3,5C000400,-0724,0832,12049,023.1,045.3,0.265,773.0,01.15,0.508
2016-01-21 00:01:00,1800E-3,5C000400,-0724,0833,12226,023.1,045.3,0.264,773.0,01.15,0.508
2016-01-21 00:02:00,1854E-3,5C000400,-0724,0832,12169,023.1,045.3,0.265,773.1,01.15,0.508
2016-01-21 00:03:00,1755E-3,5C000400,-0724,0832,12174,023.1,045.3,0.265,773.2,01.15,0.508
2016-01-21 00:04:00,1910E-3,5C000400,-0724,0833,12215,023.1,045.3,0.265,773.2,01.15,0.508
2016-01-21 00:05:00,1844E-3,5C000400,-0724,0833,12222,023.1,045.3,0.264,773.1,01.15,0.508
2016-01-21 00:06:00,1844E-3,5C000400,-0724,0833,12158,023.1,045.3,0.265,773.1,01.15,0.508
2016-01-21 00:07:00,1870E-3,5C000400,-0724,0833,12193,023.1,045.3,0.265,773.1,01.15,0.508
2016-01-21 00:08:00,1710E-3,5C000400,-0724,0832,12179,023.0,045.3,0.264,773.0,01.15,0.508
2016-01-21 00:09:00,1825E-3,5C000400,-0724,0833,12178,023.1,045.3,0.265,772.9,01.15,0.508
2016-01-21 00:10:00,1831E-3,5C000400,-0724,0833,12187,023.1,045.3,0.265,772.9,01.15,0.508
2016-01-21 00:11:00,1792E-3,5C000400,-0724,0833,12146,023.1,045.3,0.264,773.0,01.15,0.508
2016-01-21 00:12:00,1713E-3,5C000400,-0724,0833,12195,023.1,045.3,0.265,773.0,01.15,0.508
2016-01-21 00:13:00,1856E-3,5C000400,-0724,0833,12255,023.1,045.3,0.265,773.0,01.15,0.508
2016-01-21 00:14:00,1918E-3,5C000400,-0724,0833,12122,023.1,045.3,0.265,773.0,01.15,0.508
2016-01-21 00:15:00,1807E-3,5C000400,-0724,0833,12236,023.1,045.3,0.265,773.1,01.15,0.508
2016-01-21 00:16:00,1804E-3,5C000400,-0724,0833,12140,023.1,045.3,0.264,773.2,01.15,0.508
2016-01-21 00:17:00,1946E-3,5C000400,-0724,0833,12137,023.1,045.3,0.265,773.0,01.15,0.508
2016-01-21 00:18:00,1854E-3,5C000400,-0724,0832,12130,023.1,045.3,0.265,772.9,01.15,0.508
2016-01-21 00:19:00,1962E-3,5C000400,-0724,0833,12134,023.1,045.3,0.264,773.0,01.15,0.508
2016-01-21 00:20:00,1875E-3,5C000400,-0724,0833,12174,023.1,045.3,0.265,772.9,01.15,0.508
2016-01-21 00:21:00,1833E-3,5C000400,-0724,0833,12198,023.1,045.3,0.264,773.0,01.15,0.508
2016-01-21 00:22:00,1861E-3,5C000400,-0724,0833,12086,023.1,045.3,0.265,773.2,01.15,0.508
2016-01-21 00:23:00,1802E-3,5C000400,-0724,0833,12246,023.1,045.3,0.265,773.2,01.15,0.508
2016-01-21 00:24:00,1870E-3,5C000400,-0724,0832,12149,023.1,045.3,0.264,773.2,01.15,0.508
2016-01-21 00:25:00,1845E-3,5C000400,-0724,0833,12137,023.1,045.3,0.265,773.2,01.15,0.508
2016-01-21 00:26:00,1781E-3,5C000400,-0724,0833,11808,023.1,045.3,0.264,773.3,01.15,0.508
2016-01-21 00:27:00,1720E-3,5C000400,-0724,0833,12042,023.1,045.3,0.265,773.2,01.15,0.508
2016-01-21 00:28:00,1811E-3,5C000400,-0724,0833,12132,023.1,045.3,0.264,773.1,01.15,0.508
2016-01-21 00:29:00,1830E-3,5C000400,-0724,0833,12184,023.1,045.3,0.265,773.2,01.15,0.508
2016-01-21 00:30:00,1886E-3,5C000400,-0724,0833,12275,023.1,045.3,0.265,773.3,01.15,0.508
2016-01-21 00:31:00,1892E-3,5C000400,-0724,0833,12234,023.1,045.3,0.264,773.4,01.15,0.508
2016-01-21 00:32:00,1882E-3,5C000400,-0724,0833,12184,023.1,045.3,0.265,773.3,01.15,0.508
2016-01-21 00:33:00,1908E-3,5C000400,-0724,0833,11990,023.1,045.3,0.264,773.3,01.15,0.508
2016-01-21 00:34:00,1826E-3,5C000400,-0724,0833,12172,023.1,045.3,0.265,773.3,01.15,0.508
2016-01-21 00:35:00,1826E-3,5C000400,-0724,0833,12109,023.1,045.3,0.264,773.3,01.15,0.508
2016-01-21 00:36:00,1909E-3,5C000400,-0724,0833,12154,023.1,045.3,0.265,773.3,01.15,0.508
2016-01-21 00:37:00,1866E-3,5C000400,-0724,0833,12153,023.1,045.3,0.264,773.4,01.15,0.508
2016-01-21 00:38:00,1934E-3,5C000400,-0724,0833,12121,023.1,045.3,0.265,773.3,01.15,0.508
2016-01-21 00:39:00,1917E-3,5C000400,-0724,0833,12169,023.1,045.3,0.264,773.3,01.15,0.508
2016-01-21 00:40:00,1885E-3,5C000400,-0724,0833,12266,023.1,045.3,0.265,773.3,01.15,0.508
2016-01-21 00:41:00,1834E-3,5C000400,-0724,0833,12013,023.1,045.3,0.265,773.2,01.15,0.508
2016-01-21 00:42:00,1880E-3,5C000400,-0724,0833,12090,023.1,045.3,0.264,773.1,01.15,0.508
2016-01-21 00:43:00,1903E-3,5C000400,-0724,0833,12122,023.1,045.3,0.265,773.2,01.15,0.508
2016-01-21 00:44:00,1807E-3,5C000400,-0724,0833,12220,023.1,045.3,0.264,773.1,01.15,0.508
2016-01-21 00:45:00,1840E-3,5C000400,-0724,0833,12057,023.2,045.3,0.265,773.2,01.15,0.508
2016-01-21 00:46:00,1793E-3,5C000400,-0724,0833,12035,023.1,045.3,0.264,773.2,01.15,0.508
2016-01-21 00:47:00,1792E-3,5C000400,-0724,0833,12252,023.1,045.3,0.265,773.2,01.15,0.508
2016-01-21 00:48:00,1974E-3,5C000400,-0724,0833,12206,023.1,045.3,0.265,773.1,01.15,0.508
2016-01-21 00:49:00,1899E-3,5C000400,-0724,0833,12178,023.1,045.3,0.264,773.2,01.15,0.508
2016-01-21 00:50:00,1799E-3,5C000400,-0724,0833,12185,023.1,045.3,0.265,773.2,01.15,0.508
2016-01-21 00:51:00,1781E-3,5C000400,-0724,0833,12085,023.1,045.3,0.264,773.2,01.15,0.508
2016-01-21 00:52:00,1873E-3,5C000400,-0724,0833,12116,023.1,045.3,0.265,773.2,01.15,0.508
2016-01-21 00:53:00,1740E-3,5C000400,-0724,0833,12173,023.1,045.3,0.264,773.1,01.15,0.508
2016-01-21 00:54:00,1838E-3,5C000400,-0724,0833,12143,023.1,045.3,0.265,773.1,01.15,0.508
2016-01-21 00:55:00,1778E-3,5C000400,-0724,0832,12212,023.1,045.3,0.264,773.2,01.15,0.508
2016-01-21 00:56:00,1839E-3,5C000400,-0724,0833,12196,023.2,045.3,0.264,773.2,01.15,0.508
2016-01-21 00:57:00,1894E-3,5C000400,-0724,0832,12277,023.2,045.3,0.265,773.2,01.15,0.508
2016-01-21 00:58:00,1817E-3,5C000400,-0724,0834,12082,023.2,045.3,0.264,773.2,01.15,0.508
2016-01-21 00:59:00,1788E-3,5C000400,-0724,0833,12273,023.2,045.3,0.264,773.2,01.15,0.508
2016-01-21 01:00:00,1862E-3,5C000400,-0724,0833,12224,023.2,045.3,0.265,773.2,01.15,0.508
2016-01-21 01:01:00,1802E-3,5C000400,-0724,0832,12227,023.2,045.3,0.264,773.2,01.15,0.508
2016-01-21 01:02:00,1724E-3,5C000400,-0724,0833,12060,023.2,045.3,0.265,773.2,01.15,0.508
2016-01-21 01:03:00,1892E-3,5C000400,-0724,0833,12202,023.2,045.3,0.265,773.1,01.15,0.508
2016-01-21 01:04:00,1904E-3,5C000400,-0724,0833,12153,023.2,045.3,0.264,773.1,01.15,0.508
2016-01-21 01:05:00,1805E-3,5C000400,-0724,0833,12162,023.2,045.3,0.264,773.2,01.15,0.508
2016-01-21 01:06:00,1733E-3,5C000400,-0724,0833,12110,023.2,045.3,0.264,773.2,01.15,0.508
2016-01-21 01:07:00,1760E-3,5C000400,-0724,0833,12246,023.2,045.3,0.264,773.1,01.15,0.508
2016-01-21 01:08:00,1971E-3,5C000400,-0724,0834,12199,023.2,045.3,0.264,773.2,01.15,0.508
2016-01-21 01:09:00,1943E-3,5C000400,-0724,0833,12172,023.2,045.3,0.265,773.3,01.15,0.508
2016-01-21 01:10:00,1862E-3,5C000400,-0724,0833,12183,023.2,045.3,0.264,773.1,01.15,0.508
2016-01-21 01:11:00,1912E-3,5C000400,-0724,0833,12179,023.2,045.3,0.264,773.1,01.15,0.508
2016-01-21 01:12:00,1714E-3,5C000400,-0724,0832,12227,023.2,045.3,0.265,773.1,01.15,0.508
2016-01-21 01:13:00,1820E-3,5C000400,-0724,0833,12175,023.2,045.3,0.264,772.9,01.15,0.508
2016-01-21 01:14:00,1891E-3,5C000400,-0724,0833,12204,023.2,045.3,0.264,773.1,01.15,0.508
2016-01-21 01:15:00,1794E-3,5C000400,-0724,0832,12101,023.2,045.3,0.265,773.0,01.15,0.508
2016-01-21 01:16:00,1939E-3,5C000400,-0724,0833,12056,023.2,045.3,0.264,773.0,01.15,0.508
2016-01-21 01:17:00,1773E-3,5C000400,-0724,0833,12261,023.2,045.3,0.264,772.9,01.15,0.508
2016-01-21 01:18:00,1814E-3,5C000400,-0724,0834,12089,023.2,045.3,0.264,772.9,01.15,0.508
2016-01-21 01:19:00,1813E-3,5C000400,-0724,0834,12272,023.2,045.3,0.264,772.6,01.15,0.508
2016-01-21 01:20:00,1833E-3,5C000400,-0724,0833,12199,023.2,045.3,0.264,772.9,01.15,0.508
2016-01-21 01:21:00,1699E-3,5C000400,-0724,0833,12228,023.2,045.3,0.264,772.8,01.15,0.508
2016-01-21 01:22:00,1840E-3,5C000400,-0724,0833,12176,023.2,045.3,0.265,772.8,01.15,0.508
2016-01-21 01:23:00,2004E-3,5C000400,-0724,0834,12148,023.2,045.3,0.264,772.7,01.15,0.508
2016-01-21 01:24:00,1792E-3,5C000400,-0724,0832,12250,023.2,045.3,0.264,772.8,01.15,0.508
2016-01-21 01:25:00,1674E-3,5C000400,-0724,0833,12070,023.2,045.3,0.265,772.8,01.15,0.508
2016-01-21 01:26:00,1810E-3,5C000400,-0724,0833,12197,023.2,045.3,0.264,772.5,01.15,0.508
2016-01-21 01:27:00,1918E-3,5C000400,-0724,0833,12165,023.2,045.3,0.264,772.8,01.15,0.508
2016-01-21 01:28:00,1830E-3,5C000400,-0724,0832,12155,023.2,045.3,0.264,772.7,01.15,0.508
2016-01-21 01:29:00,1947E-3,5C000400,-0724,0833,12375,023.2,045.3,0.264,772.6,01.15,0.508
2016-01-21 01:30:00,1811E-3,5C000400,-0724,0833,12218,023.2,045.3,0.264,772.8,01.15,0.508
2016-01-21 01:31:00,1900E-3,5C000400,-0724,0833,12043,023.2,045.3,0.264,772.7,01.15,0.508
2016-01-21 01:32:00,1875E-3,5C000400,-0724,0834,12230,023.2,045.3,0.265,772.8,01.15,0.508
2016-01-21 01:33:00,1862E-3,5C000400,-0724,0833,12200,023.2,045.3,0.264,772.8,01.15,0.508
2016-01-21 01:34:00,1876E-3,5C000400,-0724,0833,12145,023.2,045.3,0.264,772.8,01.15,0.508
2016-01-21 01:35:00,1948E-3,5C000400,-0724,0833,12181,023.3,045.3,0.265,773.0,01.15,0.508
2016-01-21 01:36:00,1760E-3,5C000400,-0724,0833,12080,023.2,045.3,0.265,773.0,01.15,0.508
2016-01-21 01:37:00,1842E-3,5C000400,-0724,0833,12263,023.2,045.3,0.264,773.0,01.15,0.508
2016-01-21 01:38:00,1844E-3,5C000400,-0724,0833,12219,023.2,045.3,0.264,773.1,01.15,0.508
2016-01-21 01:39:00,1810E-3,5C000400,-0724,0833,12195,023.2,045.3,0.265,773.1,01.15,0.508
2016-01-21 01:40:00,1866E-3,5C000400,-0724,0834,12263,023.2,045.3,0.264,773.1,01.15,0.508
2016-01-21 01:41:00,1978E-3,5C000400,-0724,0833,12147,023.3,045.3,0.264,773.0,01.15,0.508
2016-01-21 01:42:00,1810E-3,5C000400,-0724,0833,12200,023.2,045.3,0.265,773.1,01.15,0.508
2016-01-21 01:43:00,1931E-3,5C000400,-0724,0833,12274,023.2,045.3,0.265,773.1,01.15,0.508
2016-01-21 01:44:00,1894E-3,5C000400,-0724,0833,12082,023.3,045.3,0.264,773.0,01.15,0.508
2016-01-21 01:45:00,1857E-3,5C000400,-0724,0833,12048,023.2,045.3,0.264,773.1,01.15,0.508
2016-01-21 01:46:00,1870E-3,5C000400,-0724,0833,12145,023.2,045.3,0.265,773.1,01.15,0.508
2016-01-21 01:47:00,1774E-3,5C000400,-0724,0834,12296,023.2,045.3,0.264,773.1,01.15,0.508
2016-01-21 01:48:00,1946E-3,5C000400,-0724,0833,12046,023.3,045.3,0.264,773.1,01.15,0.508
2016-01-21 01:49:00,1857E-3,5C000400,-0724,0834,12151,023.3,045.3,0.265,773.1,01.15,0.508
2016-01-21 01:50:00,1726E-3,5C000400,-0724,0833,12234,023.2,045.3,0.264,773.1,01.15,0.508
2016-01-21 01:51:00,1839E-3,5C000400,-0724,0833,12155,023.3,045.3,0.264,773.1,01.15,0.508
2016-01-21 01:52:00,1877E-3,5C000400,-0724,0833,12215,023.3,045.3,0.264,773.1,01.15,0.508
2016-01-21 01:53:00,1979E-3,5C000400,-0724,0833,12213,023.2,045.3,0.264,773.0,01.15,0.508
2016-01-21 01:54:00,1937E-3,5C000400,-0724,0832,12153,023.2,045.3,0.264,773.0,01.15,0.508
2016-01-21 01:55:00,1812E-3,5C000400,-0724,0833,12310,023.3,045.3,0.265,772.9,01.15,0.508
2016-01-21 01:56:00,1905E-3,5C000400,-0724,0832,12199,023.3,045.3,0.264,772.9,01.15,0.508
2016-01-21 01:57:00,2034E-3,5C000400,-0724,0833,12273,023.3,045.3,0.264,772.9,01.15,0.508
2016-01-21 01:58:00,1860E-3,5C000400,-0724,0833,12160,023.2,045.3,0.264,772.9,01.15,0.508
2016-01-21 01:59:00,1838E-3,5C000400,-0724,0833,12207,023.3,045.3,0.264,772.8,01.15,0.508
2016-01-21 02:00:00,1735E-3,5C000400,-0724,0833,12121,023.3,045.3,0.264,772.8,01.15,0.508
2016-01-21 02:01:00,1914E-3,5C000400,-0724,0833,12257,023.3,045.3,0.264,772.8,01.15,0.508
2016-01-21 02:02:00,1818E-3,5C000400,-0724,0833,12049,023.3,045.3,0.264,772.8,01.15,0.508
2016-01-21 02:03:00,1778E-3,5C000400,-0724,0833,12139,023.3,045.3,0.264,772.9,01.15,0.508
2016-01-21 02:04:00,1839E-3,5C000400,-0724,0832,12125,023.3,045.3,0.264,772.9,01.15,0.508
2016-01-21 02:05:00,1949E-3,5C000400,-0724,0833,12315,023.3,045.3,0.264,772.8,01.15,0.508
2016-01-21 02:06:00,1856E-3,5C000400,-0724,0833,12091,023.3,045.3,0.264,772.8,01.15,0.508
2016-01-21 02:07:00,1935E-3,5C000400,-0724,0833,12061,023.3,045.3,0.264,772.7,01.15,0.508
2016-01-21 02:08:00,1883E-3,5C000400,-0724,0833,12079,023.3,045.3,0.264,772.8,01.15,0.508
2016-01-21 02:09:00,1999E-3,5C000400,-0724,0833,12194,023.3,045.3,0.265,772.8,01.15,0.508
2016-01-21 02:10:00,1824E-3,5C000400,-0724,0834,12111,023.3,045.3,0.264,772.8,01.15,0.508
2016-01-21 02:11:00,1843E-3,5C000400,-0724,0833,12244,023.3,045.3,0.264,772.8,01.15,0.508
2016-01-21 02:12:00,2097E-3,5C000400,-0724,0833,12185,023.3,045.3,0.264,772.8,01.15,0.508
2016-01-21 02:13:00,1837E-3,5C000400,-0724,0833,12138,023.3,045.3,0.264,772.8,01.15,0.508
2016-01-21 02:14:00,1835E-3,5C000400,-0724,0832,12138,023.3,045.3,0.264,772.8,01.15,0.508
2016-01-21 02:15:00,1742E-3,5C000400,-0724,0834,12127,023.3,045.3,0.264,772.8,01.15,0.508
2016-01-21 02:16:00,1980E-3,5C000400,-0724,0833,12167,023.3,045.3,0.264,772.8,01.15,0.508
2016-01-21 02:17:00,1951E-3,5C000400,-0724,0833,12171,023.3,045.3,0.264,772.8,01.15,0.508
2016-01-21 02:18:00,1858E-3,5C000400,-0724,0833,12038,023.3,045.3,0.264,772.7,01.15,0.508
2016-01-21 02:19:00,1859E-3,5C000400,-0724,0833,12316,023.3,045.3,0.264,772.6,01.15,0.508
2016-01-21 02:20:00,1705E-3,5C000400,-0724,0833,12199,023.3,045.3,0.264,772.6,01.15,0.508
2016-01-21 02:21:00,1779E-3,5C000400,-0724,0833,12286,023.3,045.3,0.264,772.5,01.15,0.508
2016-01-21 02:22:00,1903E-3,5C000400,-0724,0833,12148,023.3,045.3,0.264,772.5,01.15,0.508
2016-01-21 02:23:00,1949E-3,5C000400,-0724,0833,12206,023.4,045.3,0.264,772.5,01.15,0.508
2016-01-21 02:24:00,1922E-3,5C000400,-0724,0833,12144,023.4,045.3,0.264,772.4,01.15,0.508
2016-01-21 02:25:00,1860E-3,5C000400,-0724,0833,12188,023.3,045.3,0.264,772.3,01.15,0.508
2016-01-21 02:26:00,1685E-3,5C000400,-0724,0832,12282,023.4,045.3,0.264,772.3,01.15,0.508
2016-01-21 02:27:00,1820E-3,5C000400,-0724,0832,12288,023.4,045.3,0.264,772.3,01.15,0.508
2016-01-21 02:28:00,1902E-3,5C000400,-0724,0833,12166,023.4,045.3,0.264,772.4,01.15,0.508
2016-01-21 02:29:00,1827E-3,5C000400,-0724,0833,12107,023.4,045.3,0.264,772.4,01.15,0.508
2016-01-21 02:30:00,1879E-3,5C000400,-0724,0833,11881,023.4,045.3,0.264,772.2,01.15,0.508
2016-01-21 02:31:00,1833E-3,5C000400,-0724,0833,12202,023.4,045.3,0.264,772.3,01.15,0.508
2016-01-21 02:32:00,1975E-3,5C000400,-0724,0834,12191,023.4,045.3,0.264,772.3,01.15,0.508
2016-01-21 02:33:00,1925E-3,5C000400,-0724,0833,12152,023.4,045.3,0.264,772.2,01.15,0.508
2016-01-21 02:34:00,1850E-3,5C000400,-0724,0832,12174,023.4,045.3,0.264,772.4,01.15,0.508
2016-01-21 02:35:00,1779E-3,5C000400,-0724,0833,12190,023.4,045.3,0.264,772.3,01.15,0.508
2016-01-21 02:36:00,1900E-3,5C000400,-0724,0833,12172,023.4,045.3,0.264,772.3,01.15,0.508
2016-01-21 02:37:00,1851E-3,5C000400,-0724,0833,12201,023.4,045.3,0.264,772.4,01.15,0.508
2016-01-21 02:38:00,1741E-3,5C000400,-0724,0833,12124,023.4,045.3,0.264,772.4,01.15,0.508
2016-01-21 02:39:00,1807E-3,5C000400,-0724,0833,12173,023.4,045.3,0.264,772.4,01.15,0.508
2016-01-21 02:40:00,1999E-3,5C000400,-0724,0833,12131,023.4,045.3,0.264,772.4,01.15,0.508
2016-01-21 02:41:00,1841E-3,5C000400,-0724,0834,12194,023.5,045.3,0.264,772.3,01.15,0.508
2016-01-21 02:42:00,1794E-3,5C000400,-0724,0834,12118,023.4,045.3,0.265,771.8,01.15,0.508
2016-01-21 02:43:00,1912E-3,5C000400,-0724,0833,12132,023.5,045.3,0.264,772.0,01.15,0.508
2016-01-21 02:44:00,1930E-3,5C000400,-0724,0833,12139,023.4,045.3,0.264,772.2,01.15,0.508
2016-01-21 02:45:00,1737E-3,5C000400,-0724,0833,12165,023.5,045.3,0.264,772.3,01.15,0.508
2016-01-21 02:46:00,1915E-3,5C000400,-0724,0832,12040,023.4,045.3,0.264,772.2,01.15,0.508
2016-01-21 02:47:00,1758E-3,5C000400,-0724,0833,12290,023.5,045.3,0.264,772.2,01.15,0.508
2016-01-21 02:48:00,1961E-3,5C000400,-0724,0833,12204,023.5,045.3,0.264,772.3,01.15,0.508
2016-01-21 02:49:00,1796E-3,5C000400,-0724,0833,12139,023.5,045.3,0.264,772.3,01.15,0.508
2016-01-21 02:50:00,1801E-3,5C000400,-0724,0833,11962,023.5,045.3,0.264,772.2,01.15,0.508
2016-01-21 02:51:00,1928E-3,5C000400,-0724,0833,12169,023.5,045.3,0.264,772.0,01.15,0.508
2016-01-21 02:52:00,1832E-3,5C000400,-0724,0833,12141,023.5,045.3,0.264,772.1,01.15,0.508
2016-01-21 02:53:00,1832E-3,5C000400,-0724,0833,12118,023.5,045.3,0.264,772.2,01.15,0.508
2016-01-21 02:54:00,1876E-3,5C000400,-0724,0833,12140,023.5,045.3,0.264,772.2,01.15,0.508
2016-01-21 02:55:00,1776E-3,5C000400,-0724,0834,12203,023.5,045.3,0.264,772.1,01.15,0.508
2016-01-21 02:56:00,1973E-3,5C000400,-0724,0833,12139,023.5,045.3,0.264,772.2,01.15,0.508
2016-01-21 02:57:00,1934E-3,5C000400,-0724,0833,12091,023.5,045.3,0.264,772.1,01.15,0.508
2016-01-21 02:58:00,1792E-3,5C000400,-0724,0834,12100,023.5,045.3,0.264,772.1,01.15,0.508
2016-01-21 02:59:00,1847E-3,5C000400,-0724,0834,12216,023.5,045.3,0.264,771.9,01.15,0.508
2016-01-21 03:00:00,1849E-3,5C000400,-0724,0833,12073,023.5,045.3,0.264,771.9,01.15,0.508
2016-01-21 03:01:00,1913E-3,5C000400,-0724,0833,12062,023.5,045.3,0.264,772.0,01.15,0.508
2016-01-21 03:02:00,1827E-3,5C000400,-0724,0833,12027,023.5,045.3,0.264,772.0,01.15,0.508
2016-01-21 03:03:00,1671E-3,5C000400,-0724,0833,12153,023.5,045.3,0.264,772.0,01.15,0.508
2016-01-21 03:04:00,1829E-3,5C000400,-0724,0833,12238,023.5,045.3,0.264,772.0,01.15,0.508
2016-01-21 03:05:00,1835E-3,5C000400,-0724,0833,12186,023.5,045.3,0.263,772.0,01.15,0.508
2016-01-21 03:06:00,1822E-3,5C000400,-0724,0833,12208,023.5,045.3,0.264,772.1,01.15,0.508
2016-01-21 03:07:00,1844E-3,5C000400,-0724,0833,12249,023.5,045.3,0.264,772.1,01.15,0.508
2016-01-21 03:08:00,1891E-3,5C000400,-0724,0833,12260,023.5,045.3,0.264,772.2,01.15,0.508
2016-01-21 03:09:00,1812E-3,5C000400,-0724,0833,12117,023.5,045.3,0.264,772.1,01.15,0.508
2016-01-21 03:10:00,1843E-3,5C000400,-0724,0833,12186,023.5,045.3,0.264,772.1,01.15,0.508
2016-01-21 03:11:00,1827E-3,5C000400,-0724,0833,12217,023.5,045.3,0.264,772.2,01.15,0.508
2016-01-21 03:12:00,1929E-3,5C000400,-0724,0833,12021,023.5,045.3,0.264,772.1,01.15,0.508
2016-01-21 03:13:00,1806E-3,5C000400,-0724,0833,12217,023.5,045.3,0.264,771.9,01.15,0.508
2016-01-21 03:14:00,1699E-3,5C000400,-0724,0833,12162,023.5,045.3,0.264,771.8,01.15,0.508
2016-01-21 03:15:00,1797E-3,5C000400,-0724,0833,12182,023.6,045.3,0.264,771.7,01.15,0.508
2016-01-21 03:16:00,1902E-3,5C000400,-0724,0833,12228,023.5,045.3,0.264,771.9,01.15,0.508
2016-01-21 03:17:00,1969E-3,5C000400,-0724,0833,12271,023.6,045.3,0.264,771.6,01.15,0.508
2016-01-21 03:18:00,1861E-3,5C000400,-0724,0833,12329,023.5,045.3,0.264,772.0,01.15,0.508
2016-01-21 03:19:00,1810E-3,5C000400,-0724,0832,12072,023.6,045.3,0.264,771.9,01.15,0.508
2016-01-21 03:20:00,1897E-3,5C000400,-0724,0833,12157,023.6,045.3,0.264,771.5,01.15,0.508
2016-01-21 03:21:00,2015E-3,5C000400,-0724,0833,12272,023.6,045.3,0.264,771.9,01.15,0.508
2016-01-21 03:22:00,1912E-3,5C000400,-0724,0833,12075,023.6,045.3,0.263,771.6,01.15,0.508
2016-01-21 03:23:00,1844E-3,5C000400,-0724,0832,12183,023.6,045.3,0.264,771.4,01.15,0.508
2016-01-21 03:24:00,1894E-3,5C000400,-0724,0833,12172,023.6,045.3,0.264,771.7,01.15,0.508
2016-01-21 03:25:00,1826E-3,5C000400,-0724,0833,12209,023.6,045.3,0.264,771.7,01.15,0.508
2016-01-21 03:26:00,1843E-3,5C000400,-0724,0833,12227,023.6,045.3,0.264,771.4,01.15,0.508
2016-01-21 03:27:00,1850E-3,5C000400,-0724,0834,12203,023.6,045.3,0.264,771.5,01.15,0.508
2016-01-21 03:28:00,1932E-3,5C000400,-0724,0833,12171,023.6,045.3,0.264,771.7,01.15,0.508
2016-01-21 03:29:00,1989E-3,5C000400,-0724,0833,12215,023.6,045.3,0.264,771.6,01.15,0.508
2016-01-21 03:30:00,1911E-3,5C000400,-0724,0833,12146,023.6,045.3,0.264,771.6,01.15,0.508
2016-01-21 03:31:00,1899E-3,5C000400,-0724,0834,12168,023.6,045.3,0.264,771.7,01.15,0.508
2016-01-21 03:32:00,1872E-3,5C000400,-0724,0833,12121,023.6,045.3,0.264,771.8,01.15,0.508
2016-01-21 03:33:00,1786E-3,5C000400,-0724,0833,12219,023.6,045.3,0.264,771.9,01.15,0.508
2016-01-21 03:34:00,1777E-3,5C000400,-0724,0833,12108,023.7,045.3,0.263,771.8,01.15,0.508
2016-01-21 03:35:00,1963E-3,5C000400,-0724,0833,12101,023.6,045.3,0.264,771.7,01.15,0.508
2016-01-21 03:36:00,1746E-3,5C000400,-0724,0833,11978,023.6,045.3,0.264,771.9,01.15,0.508
2016-01-21 03:37:00,1842E-3,5C000400,-0724,0833,12246,023.6,045.3,0.264,771.9,01.15,0.508
2016-01-21 03:38:00,1838E-3,5C000400,-0724,0833,12109,023.6,045.3,0.264,772.0,01.15,0.508
2016-01-21 03:39:00,1795E-3,5C000400,-0724,0832,12194,023.6,045.3,0.263,772.1,01.15,0.508
2016-01-21 03:40:00,1782E-3,5C000400,-0724,0833,12192,023.6,045.3,0.264,772.1,01.15,0.508
2016-01-21 03:41:00,1871E-3,5C000400,-0724,0833,12082,023.6,045.3,0.264,772.2,01.15,0.508
2016-01-21 03:42:00,1876E-3,5C000400,-0724,0834,12332,023.6,045.3,0.264,772.1,01.15,0.508
2016-01-21 03:43:00,1828E-3,5C000400,-0724,0833,12119,023.6,045.3,0.264,772.1,01.15,0.508
2016-01-21 03:44:00,1862E-3,5C000400,-0724,0833,12171,023.6,045.3,0.264,771.9,01.15,0.508
2016-01-21 03:45:00,1791E-3,5C000400,-0724,0833,12086,023.6,045.3,0.264,772.0,01.15,0.508
2016-01-21 03:46:00,1864E-3,5C000400,-0724,0833,12190,023.7,045.3,0.264,771.8,01.15,0.508
2016-01-21 03:47:00,1757E-3,5C000400,-0724,0834,12133,023.6,045.3,0.263,771.8,01.15,0.508
2016-01-21 03:48:00,1851E-3,5C000400,-0724,0833,12202,023.7,045.3,0.264,771.8,01.15,0.508
2016-01-21 03:49:00,1929E-3,5C000400,-0724,0833,12155,023.6,045.3,0.263,771.7,01.15,0.508
2016-01-21 03:50:00,1841E-3,5C000400,-0724,0833,11967,023.7,045.3,0.264,771.8,01.15,0.508
2016-01-21 03:51:00,1916E-3,5C000400,-0724,0833,12293,023.7,045.3,0.264,771.7,01.15,0.508
2016-01-21 03:52:00,1853E-3,5C000400,-0724,0833,12203,023.7,045.3,0.263,771.8,01.15,0.508
2016-01-21 03:53:00,1825E-3,5C000400,-0724,0833,12084,023.7,045.3,0.264,772.1,01.15,0.508
2016-01-21 03:54:00,1894E-3,5C000400,-0724,0833,12211,023.6,045.3,0.263,772.1,01.15,0.508
2016-01-21 03:55:00,1776E-3,5C000400,-0724,0833,11984,023.6,045.3,0.264,772.1,01.15,0.508
2016-01-21 03:56:00,1925E-3,5C000400,-0724,0833,12056,023.7,045.3,0.264,772.2,01.15,0.508
2016-01-21 03:57:00,1847E-3,5C000400,-0724,0833,12174,023.6,045.3,0.264,772.2,01.15,0.508
2016-01-21 03:58:00,1879E-3,5C000400,-0724,0832,12028,023.6,045.3,0.264,772.2,01.15,0.508
2016-01-21 03:59:00,1982E-3,5C000400,-0724,0833,12144,023.7,045.3,0.264,772.3,01.15,0.508
2016-01-21 04:00:00,1866E-3,5C000400,-0724,0833,12119,023.6,045.3,0.264,772.3,01.15,0.508
2016-01-21 04:01:00,1902E-3,5C000400,-0724,0833,12139,023.7,045.3,0.263,772.3,01.15,0.508
2016-01-21 04:02:00,1900E-3,5C000400,-0724,0834,12094,023.6,045.3,0.264,772.3,01.15,0.508
2016-01-21 04:03:00,1808E-3,5C000400,-0724,0833,12203,023.6,045.3,0.264,772.3,01.15,0.508
2016-01-21 04:04:00,1827E-3,5C000400,-0724,0833,12212,023.7,045.3,0.263,772.3,01.15,0.508
2016-01-21 04:05:00,1753E-3,5C000400,-0724,0833,12276,023.6,045.3,0.264,772.3,01.15,0.508
2016-01-21 04:06:00,1971E-3,5C000400,-0724,0833,12132,023.7,045.3,0.263,772.4,01.15,0.508
2016-01-21 04:07:00,1887E-3,5C000400,-0724,0833,12184,023.7,045.3,0.264,772.3,01.15,0.508
2016-01-21 04:08:00,1858E-3,5C000400,-0724,0833,12227,023.7,045.3,0.264,772.2,01.15,0.508
2016-01-21 04:09:00,1888E-3,5C000400,-0724,0834,12173,023.7,045.3,0.264,771.9,01.15,0.508
2016-01-21 04:10:00,1763E-3,5C000400,-0724,0833,12152,023.7,045.3,0.264,771.7,01.15,0.508
2016-01-21 04:11:00,1971E-3,5C000400,-0724,0833,12143,023.6,045.3,0.263,771.4,01.15,0.508
2016-01-21 04:12:00,1957E-3,5C000400,-0724,0833,12173,023.7,045.3,0.264,771.6,01.15,0.508
2016-01-21 04:13:00,1862E-3,5C000400,-0724,0834,12259,023.6,045.3,0.264,771.5,01.15,0.508
2016-01-21 04:14:00,1990E-3,5C000400,-0724,0833,12097,023.7,045.3,0.264,771.2,01.15,0.508
2016-01-21 04:15:00,1927E-3,5C000400,-0724,0833,12217,023.7,045.3,0.264,770.9,01.15,0.508
2016-01-21 04:16:00,1947E-3,5C000400,-0724,0833,12127,023.7,045.3,0.264,770.8,01.15,0.508
2016-01-21 04:17:00,1835E-3,5C000400,-0724,0832,12200,023.7,045.3,0.264,770.7,01.15,0.508
2016-01-21 04:18:00,1787E-3,5C000400,-0724,0834,12119,023.7,045.3,0.263,771.2,01.15,0.508
2016-01-21 04:19:00,1972E-3,5C000400,-0724,0834,12150,023.7,045.3,0.264,770.9,01.15,0.508
2016-01-21 04:20:00,1808E-3,5C000400,-0724,0833,12227,023.7,045.3,0.264,770.7,01.15,0.508